Home   Weather   George Town   Past weeks

Flag for Cayman Islands Past Weather in George Town, Cayman Islands — Yesterday and Last 2 Weeks

Now
88 °F

Passing clouds.


Feels Like: 98 °F
Forecast: N/A
Wind: 18 mph from East

Location: Owen Roberts Airportgrand Cayman

Current Time: Apr 28, 2017 at 4:58:47 pm

Latest Report: Apr 28, 2017 at 3:55 pm


Visibility: N/A

Pressure: 29.89 "Hg

Humidity: 66%

Dew Point: 75 °F

Location of George TownLocation

Past Weather in George Town — Graph

°F

George Town Temperature Yesterday

Maximum temperature yesterday: 88 °F (at 11:53 am)
Minimum temperature yesterday: 81 °F (at 6:00 am)
Average temperature yesterday: 85 °F

High & Low Weather Summary for the Past Weeks

 TemperatureHumidityPressure
High88 °F (Apr 27, 11:53 am)100% (Apr 20, 9:00 pm)30.04 "Hg (Apr 20, 9:00 pm)
Low73 °F (Apr 19, 5:00 pm)58% (Apr 14, 12:00 pm)29.77 "Hg (Apr 22, 3:00 pm)
Average82 °F79%29.90 "Hg
* Reported Apr 13 3:00 pm — Apr 28 3:55 pm, George Town, Weather by CustomWeather, © 2017

Note: Actual official high and low records may vary slightly from our data, if they occured in-between our weather recording intervals... More about our weather records

Advertising

George Town Weather History for the Previous 24 Hours

Scroll right to see more
 ConditionsComfort  
Time TempWeatherWind HumidityBarometerVisibility
3:55 pm
Fri, Apr 28
88 °FPassing clouds.18 mph66%29.89 "HgN/A
2:58 pm88 °FPassing clouds.21 mph66%29.89 "HgN/A
2:00 pm88 °FScattered clouds.16 mph75%29.92 "HgN/A
1:00 pm86 °FPassing clouds.15 mph75%29.92 "HgN/A
12:00 pm86 °FPassing clouds.15 mph75%29.95 "HgN/A
11:00 am88 °FPassing clouds.15 mph75%29.95 "HgN/A
10:00 am86 °FScattered clouds.16 mph75%29.95 "HgN/A
9:00 am84 °FPassing clouds.16 mph79%29.95 "HgN/A
8:00 am84 °FPassing clouds.10 mph84%29.92 "HgN/A
7:00 am81 °FScattered clouds.9 mph89%29.92 "HgN/A
6:00 am77 °FPassing clouds.10 mph89%29.89 "HgN/A
10:00 pm
Thu, Apr 27
82 °FPassing clouds.10 mph89%29.89 "HgN/A
9:00 pm82 °FPassing clouds.10 mph89%29.89 "HgN/A
8:00 pm82 °FPassing clouds.10 mph89%29.89 "HgN/A
7:00 pm84 °FPassing clouds.12 mph79%29.86 "HgN/A
6:00 pm84 °FPassing clouds.15 mph79%29.83 "HgN/A
5:00 pm86 °FPassing clouds.16 mph79%29.83 "HgN/A
4:00 pm88 °FPassing clouds.16 mph75%29.83 "HgN/A
Weather by CustomWeather, © 2017

See weather overviewHow to use our weather pages